Year,Month,Day,Hour,Minute,Value (Times are PST for windgust in km/hr)
2016,10,15,00,00,3.20
2016,10,15,00,01,6.40
2016,10,15,00,02,1.60
2016,10,15,00,03,14.50
2016,10,15,00,04,6.40
2016,10,15,00,05,8.10
2016,10,15,00,06,8.10
2016,10,15,00,07,9.60
2016,10,15,00,08,14.50
2016,10,15,00,09,8.10
2016,10,15,00,10,8.10
2016,10,15,00,11,6.40
2016,10,15,00,12,6.40
2016,10,15,00,13,4.80
2016,10,15,00,15,1.60
2016,10,15,00,16,9.60
2016,10,15,00,17,4.80
2016,10,15,00,18,3.20
2016,10,15,00,19,3.20
2016,10,15,00,21,1.60
2016,10,15,00,22,9.60
2016,10,15,00,23,8.10
2016,10,15,00,24,1.60
2016,10,15,00,26,3.20
2016,10,15,00,27,1.60
2016,10,15,00,28,4.80
2016,10,15,00,29,3.20
2016,10,15,00,33,4.80
2016,10,15,00,34,4.80
2016,10,15,00,35,3.20
2016,10,15,00,38,1.60
2016,10,15,01,23,1.60
2016,10,15,01,26,1.60
2016,10,15,01,28,4.80
2016,10,15,01,29,3.20
2016,10,15,01,32,3.20
2016,10,15,01,37,1.60
2016,10,15,01,38,1.60
2016,10,15,01,40,6.40
2016,10,15,01,41,3.20
2016,10,15,01,44,1.60
2016,10,15,01,45,4.80
2016,10,15,01,46,4.80
2016,10,15,01,47,1.60
2016,10,15,01,48,1.60
2016,10,15,01,51,3.20
2016,10,15,01,52,4.80
2016,10,15,01,53,1.60
2016,10,15,01,58,6.40
2016,10,15,01,59,1.60
2016,10,15,02,07,1.60
2016,10,15,02,31,1.60
2016,10,15,02,35,3.20
2016,10,15,02,59,1.60
2016,10,15,03,18,4.80
2016,10,15,03,19,4.80
2016,10,15,03,20,4.80
2016,10,15,03,21,4.80
2016,10,15,03,26,1.60
2016,10,15,04,46,3.20
2016,10,15,04,47,1.60
2016,10,15,04,52,3.20
2016,10,15,04,53,4.80
2016,10,15,04,55,1.60
2016,10,15,04,56,1.60
2016,10,15,05,00,3.20
2016,10,15,05,01,1.60
2016,10,15,05,02,3.20
2016,10,15,05,03,3.20
2016,10,15,05,04,6.40
2016,10,15,05,05,6.40
2016,10,15,05,07,4.80
2016,10,15,05,08,4.80
2016,10,15,05,12,1.60
2016,10,15,05,13,4.80
2016,10,15,05,14,9.60
2016,10,15,05,15,9.60
2016,10,15,05,16,6.40
2016,10,15,05,17,9.60
2016,10,15,05,18,6.40
2016,10,15,05,19,6.40
2016,10,15,05,20,8.10
2016,10,15,05,21,8.10
2016,10,15,05,22,6.40
2016,10,15,05,23,8.10
2016,10,15,05,24,4.80
2016,10,15,05,25,1.60
2016,10,15,05,26,6.40
2016,10,15,05,27,9.60
2016,10,15,05,28,11.30
2016,10,15,05,29,9.60
2016,10,15,05,30,4.80
2016,10,15,05,31,8.10
2016,10,15,05,32,9.60
2016,10,15,05,33,12.90
2016,10,15,05,34,4.80
2016,10,15,05,36,4.80
2016,10,15,05,37,6.40
2016,10,15,05,38,8.10
2016,10,15,05,39,3.20
2016,10,15,05,41,1.60
2016,10,15,05,42,9.60
2016,10,15,05,43,6.40
2016,10,15,05,46,1.60
2016,10,15,05,52,3.20
2016,10,15,05,54,1.60
2016,10,15,05,55,3.20
2016,10,15,05,58,6.40
2016,10,15,06,00,4.80
2016,10,15,06,01,3.20
2016,10,15,06,02,4.80
2016,10,15,06,03,6.40
2016,10,15,06,04,6.40
2016,10,15,06,05,4.80
2016,10,15,06,06,1.60
2016,10,15,06,13,4.80
2016,10,15,06,14,1.60
2016,10,15,06,19,4.80
2016,10,15,06,20,4.80
2016,10,15,06,25,8.10
2016,10,15,06,26,1.60
2016,10,15,06,31,4.80
2016,10,15,06,32,3.20
2016,10,15,06,33,4.80
2016,10,15,06,34,3.20
2016,10,15,06,35,4.80
2016,10,15,06,36,3.20
2016,10,15,06,37,4.80
2016,10,15,06,41,1.60
2016,10,15,06,42,1.60
2016,10,15,06,44,3.20
2016,10,15,06,45,3.20
2016,10,15,06,48,1.60
2016,10,15,06,53,1.60
2016,10,15,06,56,4.80
2016,10,15,06,57,6.40
2016,10,15,06,58,1.60
2016,10,15,07,09,1.60
2016,10,15,07,21,4.80
2016,10,15,07,22,4.80
2016,10,15,07,23,3.20
2016,10,15,07,27,1.60
2016,10,15,07,35,1.60
2016,10,15,07,42,3.20
2016,10,15,07,43,1.60
2016,10,15,07,50,3.20
2016,10,15,07,51,4.80
2016,10,15,07,52,4.80
2016,10,15,07,53,3.20
2016,10,15,07,54,6.40
2016,10,15,07,55,4.80
2016,10,15,07,56,3.20
2016,10,15,07,59,3.20
2016,10,15,08,02,1.60
2016,10,15,08,08,3.20
2016,10,15,08,09,6.40
2016,10,15,08,10,1.60
2016,10,15,08,11,4.80
2016,10,15,08,12,6.40
2016,10,15,08,13,6.40
2016,10,15,08,16,1.60
2016,10,15,08,24,8.10
2016,10,15,08,25,6.40
2016,10,15,08,26,3.20
2016,10,15,08,28,3.20
2016,10,15,08,31,4.80
2016,10,15,08,32,3.20
2016,10,15,08,41,3.20
2016,10,15,08,42,3.20
2016,10,15,08,45,1.60
2016,10,15,08,47,1.60
2016,10,15,08,48,1.60
2016,10,15,08,49,1.60
2016,10,15,08,55,3.20
2016,10,15,08,56,1.60
2016,10,15,08,59,1.60
2016,10,15,09,01,1.60
2016,10,15,09,02,1.60
2016,10,15,09,06,1.60
2016,10,15,09,07,3.20
2016,10,15,09,08,1.60
2016,10,15,09,10,4.80
2016,10,15,09,13,1.60
2016,10,15,09,15,1.60
2016,10,15,09,17,1.60
2016,10,15,09,18,3.20
2016,10,15,09,19,3.20
2016,10,15,09,22,4.80
2016,10,15,09,23,4.80
2016,10,15,09,24,4.80
2016,10,15,09,25,6.40
2016,10,15,09,26,4.80
2016,10,15,09,28,6.40
2016,10,15,09,29,8.10
2016,10,15,09,30,3.20
2016,10,15,09,31,3.20
2016,10,15,09,33,4.80
2016,10,15,09,35,4.80
2016,10,15,09,36,4.80
2016,10,15,09,37,3.20
2016,10,15,09,38,4.80
2016,10,15,09,39,1.60
2016,10,15,09,42,4.80
2016,10,15,09,43,4.80
2016,10,15,09,44,6.40
2016,10,15,09,45,6.40
2016,10,15,09,46,1.60
2016,10,15,09,47,1.60
2016,10,15,09,50,3.20
2016,10,15,09,51,6.40
2016,10,15,09,52,3.20
2016,10,15,09,53,11.30
2016,10,15,09,54,6.40
2016,10,15,09,55,6.40
2016,10,15,09,56,4.80
2016,10,15,09,57,9.60
2016,10,15,09,59,4.80
2016,10,15,10,01,1.60
2016,10,15,10,02,4.80
2016,10,15,10,03,6.40
2016,10,15,10,05,8.10
2016,10,15,10,06,4.80
2016,10,15,10,07,3.20
2016,10,15,10,08,6.40
2016,10,15,10,09,4.80
2016,10,15,10,10,6.40
2016,10,15,10,11,4.80
2016,10,15,10,12,6.40
2016,10,15,10,13,3.20
2016,10,15,10,14,6.40
2016,10,15,10,15,6.40
2016,10,15,10,16,3.20
2016,10,15,10,17,11.30
2016,10,15,10,18,8.10
2016,10,15,10,19,8.10
2016,10,15,10,20,6.40
2016,10,15,10,21,6.40
2016,10,15,10,22,9.60
2016,10,15,10,23,4.80
2016,10,15,10,24,8.10
2016,10,15,10,25,12.90
2016,10,15,10,26,8.10
2016,10,15,10,27,6.40
2016,10,15,10,28,1.60
2016,10,15,10,29,4.80
2016,10,15,10,30,6.40
2016,10,15,10,31,6.40
2016,10,15,10,32,9.60
2016,10,15,10,33,6.40
2016,10,15,10,34,9.60
2016,10,15,10,35,8.10
2016,10,15,10,36,9.60
2016,10,15,10,37,6.40
2016,10,15,10,38,9.60
2016,10,15,10,39,8.10
2016,10,15,10,40,8.10
2016,10,15,10,41,4.80
2016,10,15,10,42,16.10
2016,10,15,10,43,11.30
2016,10,15,10,44,6.40
2016,10,15,10,46,4.80
2016,10,15,10,47,6.40
2016,10,15,10,48,3.20
2016,10,15,10,49,4.80
2016,10,15,10,50,1.60
2016,10,15,10,51,9.60
2016,10,15,10,52,4.80
2016,10,15,10,53,9.60
2016,10,15,10,54,11.30
2016,10,15,10,55,6.40
2016,10,15,10,56,14.50
2016,10,15,10,57,6.40
2016,10,15,10,58,14.50
2016,10,15,10,59,11.30
2016,10,15,11,00,11.30
2016,10,15,11,01,17.70
2016,10,15,11,02,6.40
2016,10,15,11,03,6.40
2016,10,15,11,04,8.10
2016,10,15,11,05,9.60
2016,10,15,11,06,8.10
2016,10,15,11,07,6.40
2016,10,15,11,09,1.60
2016,10,15,11,10,3.20
2016,10,15,11,11,11.30
2016,10,15,11,12,4.80
2016,10,15,11,13,6.40
2016,10,15,11,14,4.80
2016,10,15,11,15,8.10
2016,10,15,11,18,4.80
2016,10,15,11,19,9.60
2016,10,15,11,20,8.10
2016,10,15,11,21,4.80
2016,10,15,11,23,9.60
2016,10,15,11,24,6.40
2016,10,15,11,25,6.40
2016,10,15,11,26,16.10
2016,10,15,11,27,6.40
2016,10,15,11,28,9.60
2016,10,15,11,29,11.30
2016,10,15,11,30,6.40
2016,10,15,11,31,6.40
2016,10,15,11,32,8.10
2016,10,15,11,33,8.10
2016,10,15,11,34,6.40
2016,10,15,11,35,4.80
2016,10,15,11,36,6.40
2016,10,15,11,37,11.30
2016,10,15,11,38,9.60
2016,10,15,11,39,6.40
2016,10,15,11,40,14.50
2016,10,15,11,41,12.90
2016,10,15,11,42,16.10
2016,10,15,11,43,19.30
2016,10,15,11,44,16.10
2016,10,15,11,45,9.60
2016,10,15,11,46,8.10
2016,10,15,11,47,9.60
2016,10,15,11,48,16.10
2016,10,15,11,49,11.30
2016,10,15,11,50,16.10
2016,10,15,11,51,12.90
2016,10,15,11,52,9.60
2016,10,15,11,53,11.30
2016,10,15,11,54,17.70
2016,10,15,11,55,16.10
2016,10,15,11,56,14.50
2016,10,15,11,57,8.10
2016,10,15,11,58,14.50
2016,10,15,11,59,14.50
2016,10,15,12,00,9.60
2016,10,15,12,01,9.60
2016,10,15,12,02,9.60
2016,10,15,12,03,20.90
2016,10,15,12,04,17.70
2016,10,15,12,05,11.30
2016,10,15,12,06,16.10
2016,10,15,12,07,14.50
2016,10,15,12,08,11.30
2016,10,15,12,09,17.70
2016,10,15,12,10,16.10
2016,10,15,12,11,11.30
2016,10,15,12,12,11.30
2016,10,15,12,13,11.30
2016,10,15,12,14,14.50
2016,10,15,12,15,17.70
2016,10,15,12,16,9.60
2016,10,15,12,17,14.50
2016,10,15,12,18,16.10
2016,10,15,12,19,11.30
2016,10,15,12,20,6.40
2016,10,15,12,21,9.60
2016,10,15,12,22,17.70
2016,10,15,12,23,8.10
2016,10,15,12,24,11.30
2016,10,15,12,25,16.10
2016,10,15,12,26,9.60
2016,10,15,12,27,17.70
2016,10,15,12,28,9.60
2016,10,15,12,29,14.50
2016,10,15,12,30,11.30
2016,10,15,12,31,11.30
2016,10,15,12,32,17.70
2016,10,15,12,33,9.60
2016,10,15,12,34,19.30
2016,10,15,12,35,14.50
2016,10,15,12,36,19.30
2016,10,15,12,37,19.30
2016,10,15,12,38,11.30
2016,10,15,12,39,19.30
2016,10,15,12,40,17.70
2016,10,15,12,41,14.50
2016,10,15,12,42,11.30
2016,10,15,12,43,11.30
2016,10,15,12,44,8.10
2016,10,15,12,45,11.30
2016,10,15,12,46,9.60
2016,10,15,12,47,16.10
2016,10,15,12,48,16.10
2016,10,15,12,49,11.30
2016,10,15,12,50,16.10
2016,10,15,12,51,17.70
2016,10,15,12,52,19.30
2016,10,15,12,53,16.10
2016,10,15,12,54,14.50
2016,10,15,12,55,22.50
2016,10,15,12,56,9.60
2016,10,15,12,57,14.50
2016,10,15,12,58,14.50
2016,10,15,12,59,24.20
2016,10,15,13,00,16.10
2016,10,15,13,01,20.90
2016,10,15,13,02,24.20
2016,10,15,13,03,16.10
2016,10,15,13,04,17.70
2016,10,15,13,05,20.90
2016,10,15,13,06,19.30
2016,10,15,13,07,16.10
2016,10,15,13,08,22.50
2016,10,15,13,09,17.70
2016,10,15,13,10,22.50
2016,10,15,13,11,17.70
2016,10,15,13,12,11.30
2016,10,15,13,13,11.30
2016,10,15,13,14,14.50
2016,10,15,13,15,11.30
2016,10,15,13,16,14.50
2016,10,15,13,17,16.10
2016,10,15,13,18,16.10
2016,10,15,13,19,17.70
2016,10,15,13,20,25.70
2016,10,15,13,21,17.70
2016,10,15,13,22,11.30
2016,10,15,13,23,19.30
2016,10,15,13,24,14.50
2016,10,15,13,25,16.10
2016,10,15,13,26,24.20
2016,10,15,13,27,22.50
2016,10,15,13,28,19.30
2016,10,15,13,29,20.90
2016,10,15,13,30,16.10
2016,10,15,13,31,17.70
2016,10,15,13,32,17.70
2016,10,15,13,33,11.30
2016,10,15,13,34,12.90
2016,10,15,13,35,19.30
2016,10,15,13,36,24.20
2016,10,15,13,37,22.50
2016,10,15,13,38,16.10
2016,10,15,13,39,19.30
2016,10,15,13,40,25.70
2016,10,15,13,41,16.10
2016,10,15,13,42,27.40
2016,10,15,13,43,19.30
2016,10,15,13,44,22.50
2016,10,15,13,45,19.30
2016,10,15,13,46,25.70
2016,10,15,13,47,20.90
2016,10,15,13,48,17.70
2016,10,15,13,49,27.40
2016,10,15,13,50,29.00
2016,10,15,13,51,14.50
2016,10,15,13,52,20.90
2016,10,15,13,53,9.60
2016,10,15,13,54,16.10
2016,10,15,13,55,20.90
2016,10,15,13,56,19.30
2016,10,15,13,57,14.50
2016,10,15,13,58,24.20
2016,10,15,13,59,16.10
2016,10,15,14,00,19.30
2016,10,15,14,01,16.10
2016,10,15,14,02,24.20
2016,10,15,14,03,20.90
2016,10,15,14,04,14.50
2016,10,15,14,05,16.10
2016,10,15,14,06,19.30
2016,10,15,14,07,19.30
2016,10,15,14,08,11.30
2016,10,15,14,09,16.10
2016,10,15,14,10,19.30
2016,10,15,14,11,16.10
2016,10,15,14,12,17.70
2016,10,15,14,13,17.70
2016,10,15,14,14,16.10
2016,10,15,14,15,11.30
2016,10,15,14,16,19.30
2016,10,15,14,17,20.90
2016,10,15,14,18,12.90
2016,10,15,14,19,11.30
2016,10,15,14,20,11.30
2016,10,15,14,21,17.70
2016,10,15,14,22,11.30
2016,10,15,14,23,17.70
2016,10,15,14,24,14.50
2016,10,15,14,25,22.50
2016,10,15,14,26,17.70
2016,10,15,14,27,16.10
2016,10,15,14,28,16.10
2016,10,15,14,29,19.30
2016,10,15,14,30,22.50
2016,10,15,14,31,24.20
2016,10,15,14,32,20.90
2016,10,15,14,33,17.70
2016,10,15,14,34,16.10
2016,10,15,14,35,14.50
2016,10,15,14,36,20.90
2016,10,15,14,37,20.90
2016,10,15,14,38,19.30
2016,10,15,14,39,14.50
2016,10,15,14,40,14.50
2016,10,15,14,41,17.70
2016,10,15,14,42,14.50
2016,10,15,14,43,22.50
2016,10,15,14,44,32.20
2016,10,15,14,45,25.70
2016,10,15,14,46,20.90
2016,10,15,14,47,19.30
2016,10,15,14,48,19.30
2016,10,15,14,49,25.70
2016,10,15,14,50,14.50
2016,10,15,14,51,12.90
2016,10,15,14,52,19.30
2016,10,15,14,53,14.50
2016,10,15,14,54,14.50
2016,10,15,14,55,16.10
2016,10,15,14,56,16.10
2016,10,15,14,57,20.90
2016,10,15,14,58,17.70
2016,10,15,14,59,16.10
2016,10,15,15,00,9.60
2016,10,15,15,01,8.10
2016,10,15,15,02,6.40
2016,10,15,15,03,9.60
2016,10,15,15,04,9.60
2016,10,15,15,05,9.60
2016,10,15,15,06,12.90
2016,10,15,15,07,9.60
2016,10,15,15,08,14.50
2016,10,15,15,09,9.60
2016,10,15,15,10,9.60
2016,10,15,15,11,19.30
2016,10,15,15,12,19.30
2016,10,15,15,13,22.50
2016,10,15,15,14,17.70
2016,10,15,15,15,17.70
2016,10,15,15,16,22.50
2016,10,15,15,17,25.70
2016,10,15,15,18,22.50
2016,10,15,15,19,27.40
2016,10,15,15,20,11.30
2016,10,15,15,21,19.30
2016,10,15,15,22,17.70
2016,10,15,15,23,11.30
2016,10,15,15,24,20.90
2016,10,15,15,25,14.50
2016,10,15,15,26,24.20
2016,10,15,15,27,19.30
2016,10,15,15,28,14.50
2016,10,15,15,29,16.10
2016,10,15,15,30,14.50
2016,10,15,15,31,17.70
2016,10,15,15,32,11.30
2016,10,15,15,33,16.10
2016,10,15,15,34,16.10
2016,10,15,15,35,25.70
2016,10,15,15,36,17.70
2016,10,15,15,37,9.60
2016,10,15,15,38,14.50
2016,10,15,15,39,8.10
2016,10,15,15,40,25.70
2016,10,15,15,41,22.50
2016,10,15,15,42,20.90
2016,10,15,15,43,16.10
2016,10,15,15,44,14.50
2016,10,15,15,45,20.90
2016,10,15,15,46,22.50
2016,10,15,15,47,19.30
2016,10,15,15,48,14.50
2016,10,15,15,49,19.30
2016,10,15,15,50,17.70
2016,10,15,15,51,20.90
2016,10,15,15,52,11.30
2016,10,15,15,53,16.10
2016,10,15,15,54,24.20
2016,10,15,15,55,22.50
2016,10,15,15,56,16.10
2016,10,15,15,57,14.50
2016,10,15,15,58,16.10
2016,10,15,15,59,11.30
2016,10,15,16,00,16.10
2016,10,15,16,01,8.10
2016,10,15,16,02,16.10
2016,10,15,16,03,16.10
2016,10,15,16,04,8.10
2016,10,15,16,05,20.90
2016,10,15,16,06,17.70
2016,10,15,16,07,17.70
2016,10,15,16,08,30.60
2016,10,15,16,09,14.50
2016,10,15,16,10,20.90
2016,10,15,16,11,19.30
2016,10,15,16,12,25.70
2016,10,15,16,13,17.70
2016,10,15,16,14,11.30
2016,10,15,16,15,11.30
2016,10,15,16,16,19.30
2016,10,15,16,17,16.10
2016,10,15,16,18,12.90
2016,10,15,16,19,11.30
2016,10,15,16,20,14.50
2016,10,15,16,21,17.70
2016,10,15,16,22,16.10
2016,10,15,16,23,17.70
2016,10,15,16,24,9.60
2016,10,15,16,25,30.60
2016,10,15,16,26,27.40
2016,10,15,16,27,27.40
2016,10,15,16,28,19.30
2016,10,15,16,29,27.40
2016,10,15,16,30,37.00
2016,10,15,16,31,30.60
2016,10,15,16,32,25.70
2016,10,15,16,33,30.60
2016,10,15,16,34,37.00
2016,10,15,16,35,35.40
2016,10,15,16,36,32.20
2016,10,15,16,37,43.50
2016,10,15,16,38,41.80
2016,10,15,16,39,33.80
2016,10,15,16,40,29.00
2016,10,15,16,41,29.00
2016,10,15,16,42,61.20
2016,10,15,16,43,45.10
2016,10,15,16,44,29.00
2016,10,15,16,45,48.30
2016,10,15,16,46,43.50
2016,10,15,16,47,41.80
2016,10,15,16,48,38.60
2016,10,15,16,49,38.60
2016,10,15,16,50,37.00
2016,10,15,16,51,30.60
2016,10,15,16,52,40.20
2016,10,15,16,53,35.40
2016,10,15,16,54,29.00
2016,10,15,16,55,35.40
2016,10,15,16,56,32.20
2016,10,15,16,57,22.50
2016,10,15,16,58,33.80
2016,10,15,16,59,38.60
2016,10,15,17,00,24.20
2016,10,15,17,01,46.70
2016,10,15,17,02,29.00
2016,10,15,17,03,38.60
2016,10,15,17,04,53.10
2016,10,15,17,05,41.80
2016,10,15,17,06,43.50
2016,10,15,17,07,57.90
2016,10,15,17,08,45.10
2016,10,15,17,09,46.70
2016,10,15,17,10,33.80
2016,10,15,17,11,37.00
2016,10,15,17,12,27.40
2016,10,15,17,13,49.90
2016,10,15,17,14,46.70
2016,10,15,17,15,45.10
2016,10,15,17,16,48.30
2016,10,15,17,17,43.50
2016,10,15,17,18,51.50
2016,10,15,17,19,41.80
2016,10,15,17,20,53.10
2016,10,15,17,21,30.60
2016,10,15,17,22,22.50
2016,10,15,17,23,38.60
2016,10,15,17,24,24.20
2016,10,15,17,25,33.80
2016,10,15,17,26,40.20
2016,10,15,17,27,38.60
2016,10,15,17,28,38.60
2016,10,15,17,29,32.20
2016,10,15,17,30,33.80
2016,10,15,17,31,37.00
2016,10,15,17,32,33.80
2016,10,15,17,33,35.40
2016,10,15,17,34,27.40
2016,10,15,17,35,19.30
2016,10,15,17,36,35.40
2016,10,15,17,37,29.00
2016,10,15,17,38,25.70
2016,10,15,17,39,17.70
2016,10,15,17,40,20.90
2016,10,15,17,41,29.00
2016,10,15,17,42,32.20
2016,10,15,17,43,27.40
2016,10,15,17,44,48.30
2016,10,15,17,45,41.80
2016,10,15,17,46,45.10
2016,10,15,17,47,35.40
2016,10,15,17,48,45.10
2016,10,15,17,49,40.20
2016,10,15,17,50,22.50
2016,10,15,17,51,32.20
2016,10,15,17,52,30.60
2016,10,15,17,53,30.60
2016,10,15,17,54,32.20
2016,10,15,17,55,24.20
2016,10,15,17,56,32.20
2016,10,15,17,57,38.60
2016,10,15,17,58,33.80
2016,10,15,17,59,33.80
2016,10,15,18,00,24.20
2016,10,15,18,01,40.20
2016,10,15,18,02,25.70
2016,10,15,18,03,20.90
2016,10,15,18,04,29.00
2016,10,15,18,05,24.20
2016,10,15,18,06,29.00
2016,10,15,18,07,29.00
2016,10,15,18,08,16.10
2016,10,15,18,09,16.10
2016,10,15,18,10,37.00
2016,10,15,18,11,25.70
2016,10,15,18,12,35.40
2016,10,15,18,13,29.00
2016,10,15,18,14,20.90
2016,10,15,18,15,29.00
2016,10,15,18,16,32.20
2016,10,15,18,17,20.90
2016,10,15,18,18,22.50
2016,10,15,18,19,37.00
2016,10,15,18,20,24.20
2016,10,15,18,21,22.50
2016,10,15,18,22,25.70
2016,10,15,18,23,33.80
2016,10,15,18,24,33.80
2016,10,15,18,25,20.90
2016,10,15,18,26,35.40
2016,10,15,18,27,17.70
2016,10,15,18,28,17.70
2016,10,15,18,29,17.70
2016,10,15,18,30,32.20
2016,10,15,18,31,19.30
2016,10,15,18,32,14.50
2016,10,15,18,33,22.50
2016,10,15,18,34,9.60
2016,10,15,18,35,11.30
2016,10,15,18,36,8.10
2016,10,15,18,37,27.40
2016,10,15,18,38,24.20
2016,10,15,18,39,25.70
2016,10,15,18,40,17.70
2016,10,15,18,41,16.10
2016,10,15,18,42,9.60
2016,10,15,18,43,19.30
2016,10,15,18,44,14.50
2016,10,15,18,45,24.20
2016,10,15,18,46,27.40
2016,10,15,18,47,25.70
2016,10,15,18,48,16.10
2016,10,15,18,49,19.30
2016,10,15,18,50,19.30
2016,10,15,18,51,17.70
2016,10,15,18,52,16.10
2016,10,15,18,53,22.50
2016,10,15,18,54,11.30
2016,10,15,18,55,27.40
2016,10,15,18,56,17.70
2016,10,15,18,57,16.10
2016,10,15,18,58,24.20
2016,10,15,18,59,17.70
2016,10,15,19,00,30.60
2016,10,15,19,01,24.20
2016,10,15,19,02,11.30
2016,10,15,19,03,24.20
2016,10,15,19,04,16.10
2016,10,15,19,05,19.30
2016,10,15,19,06,16.10
2016,10,15,19,07,16.10
2016,10,15,19,08,19.30
2016,10,15,19,09,8.10
2016,10,15,19,10,14.50
2016,10,15,19,11,17.70
2016,10,15,19,12,11.30
2016,10,15,19,13,6.40
2016,10,15,19,14,4.80
2016,10,15,19,17,12.90
2016,10,15,19,18,1.60
2016,10,15,19,19,3.20
2016,10,15,19,20,8.10
2016,10,15,19,21,12.90
2016,10,15,19,22,9.60
2016,10,15,19,23,11.30
2016,10,15,19,24,16.10
2016,10,15,19,25,4.80
2016,10,15,19,26,6.40
2016,10,15,19,27,14.50
2016,10,15,19,28,9.60
2016,10,15,19,29,9.60
2016,10,15,19,30,9.60
2016,10,15,19,31,8.10
2016,10,15,19,32,6.40
2016,10,15,19,33,16.10
2016,10,15,19,34,22.50
2016,10,15,19,35,29.00
2016,10,15,19,36,12.90
2016,10,15,19,37,14.50
2016,10,15,19,38,25.70
2016,10,15,19,39,20.90
2016,10,15,19,40,14.50
2016,10,15,19,41,16.10
2016,10,15,19,42,27.40
2016,10,15,19,43,19.30
2016,10,15,19,44,14.50
2016,10,15,19,45,16.10
2016,10,15,19,46,11.30
2016,10,15,19,47,24.20
2016,10,15,19,48,20.90
2016,10,15,19,49,9.60
2016,10,15,19,50,11.30
2016,10,15,19,51,19.30
2016,10,15,19,52,14.50
2016,10,15,19,53,14.50
2016,10,15,19,54,27.40
2016,10,15,19,55,16.10
2016,10,15,19,56,19.30
2016,10,15,19,57,20.90
2016,10,15,19,58,19.30
2016,10,15,19,59,24.20
2016,10,15,20,00,30.60
2016,10,15,20,01,17.70
2016,10,15,20,02,30.60
2016,10,15,20,03,17.70
2016,10,15,20,04,14.50
2016,10,15,20,05,14.50
2016,10,15,20,06,22.50
2016,10,15,20,07,19.30
2016,10,15,20,08,16.10
2016,10,15,20,09,27.40
2016,10,15,20,10,25.70
2016,10,15,20,11,30.60
2016,10,15,20,12,19.30
2016,10,15,20,13,19.30
2016,10,15,20,14,19.30
2016,10,15,20,15,19.30
2016,10,15,20,16,17.70
2016,10,15,20,17,6.40
2016,10,15,20,18,8.10
2016,10,15,20,19,17.70
2016,10,15,20,20,16.10
2016,10,15,20,21,25.70
2016,10,15,20,22,41.80
2016,10,15,20,23,35.40
2016,10,15,20,24,19.30
2016,10,15,20,25,24.20
2016,10,15,20,26,17.70
2016,10,15,20,27,20.90
2016,10,15,20,28,11.30
2016,10,15,20,29,17.70
2016,10,15,20,30,32.20
2016,10,15,20,31,17.70
2016,10,15,20,32,14.50
2016,10,15,20,33,24.20
2016,10,15,20,34,29.00
2016,10,15,20,35,14.50
2016,10,15,20,36,16.10
2016,10,15,20,37,20.90
2016,10,15,20,38,17.70
2016,10,15,20,39,27.40
2016,10,15,20,40,24.20
2016,10,15,20,41,22.50
2016,10,15,20,42,22.50
2016,10,15,20,43,30.60
2016,10,15,20,44,24.20
2016,10,15,20,45,22.50
2016,10,15,20,46,22.50
2016,10,15,20,47,16.10
2016,10,15,20,48,20.90
2016,10,15,20,49,38.60
2016,10,15,20,50,33.80
2016,10,15,20,51,25.70
2016,10,15,20,52,27.40
2016,10,15,20,53,29.00
2016,10,15,20,54,25.70
2016,10,15,20,55,22.50
2016,10,15,20,56,41.80
2016,10,15,20,57,32.20
2016,10,15,20,58,32.20
2016,10,15,20,59,35.40
2016,10,15,21,00,54.70
2016,10,15,21,01,46.70
2016,10,15,21,02,25.70
2016,10,15,21,03,56.30
2016,10,15,21,04,45.10
2016,10,15,21,05,33.80
2016,10,15,21,06,41.80
2016,10,15,21,07,24.20
2016,10,15,21,08,25.70
2016,10,15,21,09,30.60
2016,10,15,21,10,27.40
2016,10,15,21,11,37.00
2016,10,15,21,12,35.40
2016,10,15,21,13,37.00
2016,10,15,21,14,30.60
2016,10,15,21,15,33.80
2016,10,15,21,16,30.60
2016,10,15,21,17,30.60
2016,10,15,21,18,45.10
2016,10,15,21,19,27.40
2016,10,15,21,20,38.60
2016,10,15,21,21,38.60
2016,10,15,21,22,29.00
2016,10,15,21,23,20.90
2016,10,15,21,24,32.20
2016,10,15,21,25,33.80
2016,10,15,21,26,29.00
2016,10,15,21,27,25.70
2016,10,15,21,28,22.50
2016,10,15,21,29,32.20
2016,10,15,21,30,24.20
2016,10,15,21,31,27.40
2016,10,15,21,32,27.40
2016,10,15,21,33,17.70
2016,10,15,21,34,41.80
2016,10,15,21,35,22.50
2016,10,15,21,36,17.70
2016,10,15,21,37,17.70
2016,10,15,21,38,20.90
2016,10,15,21,39,19.30
2016,10,15,21,40,22.50
2016,10,15,21,41,19.30
2016,10,15,21,42,25.70
2016,10,15,21,43,27.40
2016,10,15,21,44,19.30
2016,10,15,21,45,16.10
2016,10,15,21,46,17.70
2016,10,15,21,47,14.50
2016,10,15,21,48,17.70
2016,10,15,21,49,19.30
2016,10,15,21,50,27.40
2016,10,15,21,51,24.20
2016,10,15,21,52,19.30
2016,10,15,21,53,32.20
2016,10,15,21,54,35.40
2016,10,15,21,55,24.20
2016,10,15,21,56,11.30
2016,10,15,21,57,19.30
2016,10,15,21,58,20.90
2016,10,15,21,59,25.70
2016,10,15,22,00,19.30
2016,10,15,22,01,20.90
2016,10,15,22,02,29.00
2016,10,15,22,03,24.20
2016,10,15,22,04,33.80
2016,10,15,22,05,14.50
2016,10,15,22,06,17.70
2016,10,15,22,07,19.30
2016,10,15,22,08,33.80
2016,10,15,22,09,30.60
2016,10,15,22,10,22.50
2016,10,15,22,11,25.70
2016,10,15,22,12,29.00
2016,10,15,22,13,22.50
2016,10,15,22,14,33.80
2016,10,15,22,15,25.70
2016,10,15,22,16,17.70
2016,10,15,22,17,27.40
2016,10,15,22,18,24.20
2016,10,15,22,19,24.20
2016,10,15,22,20,19.30
2016,10,15,22,21,27.40
2016,10,15,22,22,16.10
2016,10,15,22,23,17.70
2016,10,15,22,24,20.90
2016,10,15,22,25,22.50
2016,10,15,22,26,12.90
2016,10,15,22,27,16.10
2016,10,15,22,28,16.10
2016,10,15,22,29,32.20
2016,10,15,22,30,17.70
2016,10,15,22,31,30.60
2016,10,15,22,32,27.40
2016,10,15,22,33,19.30
2016,10,15,22,34,27.40
2016,10,15,22,35,16.10
2016,10,15,22,36,11.30
2016,10,15,22,37,14.50
2016,10,15,22,38,25.70
2016,10,15,22,39,19.30
2016,10,15,22,40,20.90
2016,10,15,22,41,14.50
2016,10,15,22,42,20.90
2016,10,15,22,43,19.30
2016,10,15,22,44,9.60
2016,10,15,22,45,9.60
2016,10,15,22,46,19.30
2016,10,15,22,47,17.70
2016,10,15,22,48,17.70
2016,10,15,22,49,14.50
2016,10,15,22,50,22.50
2016,10,15,22,51,22.50
2016,10,15,22,52,12.90
2016,10,15,22,53,16.10
2016,10,15,22,54,9.60
2016,10,15,22,55,14.50
2016,10,15,22,56,14.50
2016,10,15,22,57,19.30
2016,10,15,22,58,14.50
2016,10,15,22,59,22.50
2016,10,15,23,00,12.90
2016,10,15,23,01,24.20
2016,10,15,23,02,11.30
2016,10,15,23,03,8.10
2016,10,15,23,04,9.60
2016,10,15,23,05,6.40
2016,10,15,23,06,9.60
2016,10,15,23,07,11.30
2016,10,15,23,08,1.60
2016,10,15,23,09,9.60
2016,10,15,23,10,11.30
2016,10,15,23,11,4.80
2016,10,15,23,12,11.30
2016,10,15,23,13,9.60
2016,10,15,23,14,4.80
2016,10,15,23,15,9.60
2016,10,15,23,16,11.30
2016,10,15,23,17,9.60
2016,10,15,23,18,8.10
2016,10,15,23,19,8.10
2016,10,15,23,20,9.60
2016,10,15,23,21,11.30
2016,10,15,23,22,1.60
2016,10,15,23,23,4.80
2016,10,15,23,24,4.80
2016,10,15,23,25,6.40
2016,10,15,23,26,8.10
2016,10,15,23,27,6.40
2016,10,15,23,28,4.80
2016,10,15,23,30,1.60
2016,10,15,23,31,14.50
2016,10,15,23,32,3.20
2016,10,15,23,34,4.80
2016,10,15,23,35,4.80
2016,10,15,23,36,3.20
2016,10,15,23,37,6.40
2016,10,15,23,41,1.60
2016,10,15,23,43,1.60
2016,10,15,23,44,8.10
2016,10,15,23,45,6.40
2016,10,15,23,46,4.80
2016,10,15,23,47,6.40
2016,10,15,23,48,8.10
2016,10,15,23,49,8.10
2016,10,15,23,50,14.50
2016,10,15,23,51,9.60
2016,10,15,23,52,3.20
2016,10,15,23,53,8.10
2016,10,15,23,54,6.40
2016,10,15,23,55,6.40
2016,10,15,23,56,4.80
2016,10,15,23,58,4.80
2016,10,15,23,59,9.60
